N864HD KBOS-KMGW

Flight info

Callsign N864HD
Flight time 1h 41m
Altitude 32000
Route BLZZR6 BLZZR BAF Q406 BWZ J6 MRB
Aircraft P180/L-SBDFGM3RWXY/LB1

Departure

Time 2026-05-05 21:52
Airport Boston Logan International Airport (KBOS)

Arrival

Time 2026-05-05 23:33
Airport Morgantown Municipal Airport Walter L. (Bill) Hart Field (KMGW)
Time Latitude Longitude Altitude Speed Heading
2026-05-05 21:42 42.37408 -71.02072 20 ft 0 kts 314°
2026-05-05 21:45 42.37409 -71.02074 20 ft 2 kts 317°
2026-05-05 21:45 42.37437 -71.02075 20 ft 7 kts 16°
2026-05-05 21:45 42.37451 -71.02054 20 ft 5 kts 76°
2026-05-05 21:46 42.37425 -71.01997 20 ft 10 kts 135°
2026-05-05 21:46 42.37361 -71.01911 20 ft 16 kts 135°
2026-05-05 21:46 42.37272 -71.01792 20 ft 20 kts 135°
2026-05-05 21:46 42.37199 -71.01696 20 ft 12 kts 135°
2026-05-05 21:47 42.37130 -71.01601 20 ft 17 kts 135°
2026-05-05 21:47 42.37056 -71.01502 20 ft 10 kts 134°
2026-05-05 21:47 42.37015 -71.01448 20 ft 7 kts 135°
2026-05-05 21:47 42.36965 -71.01382 20 ft 17 kts 136°
2026-05-05 21:48 42.36914 -71.01287 20 ft 10 kts 96°
2026-05-05 21:48 42.36943 -71.01170 20 ft 16 kts 62°
2026-05-05 21:48 42.37051 -71.01069 20 ft 22 kts 27°
2026-05-05 21:48 42.37162 -71.00999 20 ft 17 kts 27°
2026-05-05 21:49 42.37258 -71.00934 20 ft 15 kts 25°
2026-05-05 21:49 42.37373 -71.00873 20 ft 21 kts 19°
2026-05-05 21:49 42.37499 -71.00812 20 ft 19 kts 19°
2026-05-05 21:49 42.37599 -71.00762 20 ft 11 kts 24°
2026-05-05 21:50 42.37622 -71.00696 20 ft 8 kts 107°
2026-05-05 21:50 42.37614 -71.00670 20 ft 0 kts 111°
2026-05-05 21:50 42.37614 -71.00669 20 ft 0 kts 111°
2026-05-05 21:50 42.37606 -71.00640 20 ft 7 kts 109°
2026-05-05 21:51 42.37570 -71.00581 20 ft 9 kts 182°
2026-05-05 21:51 42.37553 -71.00587 20 ft 0 kts 199°
2026-05-05 21:51 42.37552 -71.00587 20 ft 0 kts 199°
2026-05-05 21:51 42.37551 -71.00588 20 ft 6 kts 199°
2026-05-05 21:52 42.36482 -71.01119 273 ft 128 kts 202°
2026-05-05 21:52 42.35647 -71.01636 969 ft 135 kts 202°
2026-05-05 21:52 42.34710 -71.01673 1894 ft 131 kts 181°
2026-05-05 21:53 42.33805 -71.01283 2645 ft 147 kts 166°
2026-05-05 21:53 42.32966 -71.00327 3290 ft 169 kts 144°
2026-05-05 21:53 42.32291 -70.98959 4075 ft 177 kts 136°
2026-05-05 21:53 42.31606 -70.97547 4781 ft 181 kts 138°
2026-05-05 21:54 42.31157 -70.95876 5500 ft 206 kts 100°
2026-05-05 21:54 42.31377 -70.93896 6173 ft 218 kts 83°
2026-05-05 21:54 42.31702 -70.91883 6794 ft 221 kts 82°
2026-05-05 21:54 42.32000 -70.89843 7434 ft 221 kts 83°
2026-05-05 21:55 42.32282 -70.87799 8068 ft 222 kts 82°
2026-05-05 21:55 42.32568 -70.85745 8689 ft 222 kts 81°
2026-05-05 21:55 42.32863 -70.83658 9339 ft 223 kts 80°
2026-05-05 21:55 42.33153 -70.81593 9918 ft 225 kts 81°
2026-05-05 21:56 42.33083 -70.79530 10446 ft 217 kts 117°
2026-05-05 21:56 42.32404 -70.77734 10983 ft 214 kts 127°
2026-05-05 21:56 42.31682 -70.75996 11497 ft 215 kts 126°
2026-05-05 21:56 42.30958 -70.74210 12004 ft 217 kts 125°
2026-05-05 21:57 42.30140 -70.72534 12530 ft 208 kts 148°
2026-05-05 21:57 42.28895 -70.71919 13029 ft 185 kts 187°
2026-05-05 21:57 42.27654 -70.72156 13492 ft 176 kts 208°
2026-05-05 21:57 42.26643 -70.73013 13964 ft 170 kts 229°
2026-05-05 21:58 42.25983 -70.74299 14459 ft 167 kts 248°
2026-05-05 21:58 42.25754 -70.75832 14948 ft 169 kts 266°
2026-05-05 21:58 42.25730 -70.77418 15399 ft 171 kts 265°
2026-05-05 21:58 42.25674 -70.79043 15862 ft 173 kts 264°
2026-05-05 21:59 42.25606 -70.80670 16283 ft 174 kts 264°
2026-05-05 21:59 42.25537 -70.82313 16733 ft 176 kts 264°
2026-05-05 21:59 42.25468 -70.83969 17168 ft 178 kts 264°
2026-05-05 21:59 42.25400 -70.85628 17593 ft 180 kts 264°
2026-05-05 22:00 42.25330 -70.87319 18013 ft 181 kts 264°
2026-05-05 22:00 42.25259 -70.89024 18385 ft 183 kts 264°
2026-05-05 22:00 42.25187 -70.90741 18745 ft 184 kts 264°
2026-05-05 22:00 42.25115 -70.92472 19109 ft 185 kts 264°
2026-05-05 22:01 42.25042 -70.94218 19455 ft 186 kts 264°
2026-05-05 22:01 42.24968 -70.95970 19805 ft 188 kts 264°
2026-05-05 22:01 42.24893 -70.97738 20151 ft 189 kts 265°
2026-05-05 22:01 42.24818 -70.99516 20508 ft 190 kts 265°
2026-05-05 22:02 42.24742 -71.01302 20873 ft 191 kts 265°
2026-05-05 22:02 42.24664 -71.03099 21241 ft 192 kts 265°
2026-05-05 22:02 42.24586 -71.04906 21625 ft 193 kts 265°
2026-05-05 22:02 42.24509 -71.06724 21997 ft 194 kts 266°
2026-05-05 22:03 42.24430 -71.08552 22372 ft 196 kts 266°
2026-05-05 22:03 42.24349 -71.10393 22739 ft 197 kts 266°
2026-05-05 22:03 42.24268 -71.12240 23119 ft 198 kts 266°
2026-05-05 22:03 42.24188 -71.14099 23498 ft 199 kts 266°
2026-05-05 22:04 42.24107 -71.15950 23821 ft 200 kts 266°
2026-05-05 22:04 42.24024 -71.17826 24166 ft 201 kts 266°
2026-05-05 22:04 42.23940 -71.19716 24494 ft 202 kts 266°
2026-05-05 22:04 42.23856 -71.21618 24836 ft 203 kts 266°
2026-05-05 22:05 42.23771 -71.23527 25170 ft 204 kts 266°
2026-05-05 22:05 42.23685 -71.25446 25512 ft 205 kts 266°
2026-05-05 22:05 42.23598 -71.27378 25858 ft 207 kts 266°
2026-05-05 22:05 42.23540 -71.28688 26101 ft 207 kts 266°
2026-05-05 22:06 42.23451 -71.30636 26456 ft 208 kts 266°
2026-05-05 22:06 42.23333 -71.33230 26938 ft 210 kts 266°
2026-05-05 22:06 42.23272 -71.34559 27185 ft 211 kts 266°
2026-05-05 22:06 42.23182 -71.36542 27535 ft 212 kts 267°
2026-05-05 22:07 42.23092 -71.38511 27888 ft 214 kts 266°
2026-05-05 22:07 42.23000 -71.40519 28256 ft 215 kts 267°
2026-05-05 22:07 42.22906 -71.42539 28631 ft 216 kts 267°
2026-05-05 22:07 42.22811 -71.44569 29002 ft 217 kts 267°
2026-05-05 22:08 42.22717 -71.46611 29371 ft 219 kts 267°
2026-05-05 22:08 42.22620 -71.48671 29754 ft 220 kts 267°
2026-05-05 22:08 42.22523 -71.50744 30098 ft 221 kts 267°
2026-05-05 22:08 42.22425 -71.52810 30417 ft 222 kts 268°
2026-05-05 22:09 42.22326 -71.54902 30782 ft 221 kts 268°
2026-05-05 22:09 42.22229 -71.56945 31145 ft 220 kts 269°
2026-05-05 22:09 42.22131 -71.59002 31496 ft 219 kts 269°
2026-05-05 22:09 42.22032 -71.61075 31757 ft 223 kts 269°
2026-05-05 22:10 42.21932 -71.63191 31823 ft 233 kts 269°
2026-05-05 22:10 42.21825 -71.65432 31850 ft 245 kts 269°
2026-05-05 22:10 42.21711 -71.67785 31852 ft 257 kts 269°
2026-05-05 22:10 42.21591 -71.70245 31849 ft 269 kts 269°
2026-05-05 22:11 42.21466 -71.72806 31848 ft 279 kts 269°
2026-05-05 22:11 42.21335 -71.75463 31851 ft 289 kts 269°
2026-05-05 22:11 42.21200 -71.78210 31849 ft 298 kts 269°
2026-05-05 22:12 42.20916 -71.83929 31850 ft 313 kts 269°
2026-05-05 22:12 42.20614 -71.89919 31853 ft 326 kts 269°
2026-05-05 22:13 42.20300 -71.96110 31853 ft 335 kts 269°
2026-05-05 22:13 42.19973 -72.02473 31846 ft 344 kts 269°
2026-05-05 22:14 42.19642 -72.08911 31842 ft 349 kts 269°
2026-05-05 22:14 42.19295 -72.15476 31838 ft 352 kts 269°
2026-05-05 22:15 42.18946 -72.22080 31805 ft 354 kts 269°
2026-05-05 22:15 42.18588 -72.28728 31796 ft 356 kts 269°
2026-05-05 22:16 42.18229 -72.35393 31784 ft 357 kts 269°
2026-05-05 22:16 42.17862 -72.42088 31784 ft 358 kts 269°
2026-05-05 22:17 42.17491 -72.48784 31783 ft 358 kts 269°
2026-05-05 22:17 42.17118 -72.55477 31783 ft 358 kts 269°
2026-05-05 22:18 42.16739 -72.62178 31782 ft 358 kts 268°
2026-05-05 22:18 42.15856 -72.68822 31798 ft 363 kts 257°
2026-05-05 22:19 42.13852 -72.75129 31793 ft 370 kts 245°
2026-05-05 22:19 42.10829 -72.80810 31801 ft 376 kts 237°
2026-05-05 22:20 42.07603 -72.86328 31793 ft 374 kts 238°
2026-05-05 22:20 42.04398 -72.91807 31795 ft 375 kts 237°
2026-05-05 22:21 42.01169 -72.97294 31811 ft 373 kts 237°
2026-05-05 22:21 41.97924 -73.02823 31817 ft 374 kts 237°
2026-05-05 22:22 41.94192 -73.07797 31812 ft 383 kts 224°
2026-05-05 22:22 41.89681 -73.11742 31820 ft 388 kts 218°
2026-05-05 22:23 41.85109 -73.15611 31827 ft 389 kts 218°
2026-05-05 22:23 41.80540 -73.19434 31830 ft 389 kts 218°
2026-05-05 22:24 41.75949 -73.23282 31847 ft 389 kts 218°
2026-05-05 22:24 41.71347 -73.27130 31855 ft 390 kts 218°
2026-05-05 22:25 41.66803 -73.31078 31859 ft 386 kts 224°
2026-05-05 22:25 41.63016 -73.36041 31848 ft 378 kts 235°
2026-05-05 22:26 41.59560 -73.41387 31837 ft 380 kts 234°
2026-05-05 22:26 41.56081 -73.46706 31840 ft 380 kts 235°
2026-05-05 22:27 41.52616 -73.52043 31843 ft 381 kts 234°
2026-05-05 22:27 41.49123 -73.57377 31846 ft 381 kts 234°
2026-05-05 22:28 41.45658 -73.62683 31850 ft 382 kts 234°
2026-05-05 22:28 41.42163 -73.68010 31854 ft 382 kts 234°
2026-05-05 22:29 41.38775 -73.73171 31838 ft 382 kts 234°
2026-05-05 22:29 41.35271 -73.78497 31835 ft 382 kts 234°
2026-05-05 22:30 41.31737 -73.83789 31827 ft 383 kts 233°
2026-05-05 22:30 41.28145 -73.89046 31827 ft 383 kts 234°
2026-05-05 22:31 41.24585 -73.94322 31826 ft 384 kts 233°
2026-05-05 22:31 41.21017 -73.99554 31824 ft 384 kts 233°
2026-05-05 22:32 41.17416 -74.04852 31815 ft 384 kts 233°
2026-05-05 22:32 41.13934 -74.10212 31821 ft 380 kts 239°
2026-05-05 22:33 41.11136 -74.16125 31832 ft 378 kts 243°
2026-05-05 22:33 41.08365 -74.21982 31842 ft 378 kts 243°
2026-05-05 22:34 41.05592 -74.27913 31840 ft 378 kts 243°
2026-05-05 22:34 41.02786 -74.33868 31846 ft 379 kts 243°
2026-05-05 22:35 40.99995 -74.39784 31844 ft 379 kts 243°
2026-05-05 22:35 40.97219 -74.45663 31849 ft 379 kts 243°
2026-05-05 22:36 40.94420 -74.51575 31844 ft 379 kts 243°
2026-05-05 22:36 40.91617 -74.57484 31850 ft 379 kts 243°
2026-05-05 22:37 40.88809 -74.63394 31847 ft 379 kts 243°
2026-05-05 22:37 40.85999 -74.69297 31846 ft 379 kts 242°
2026-05-05 22:38 40.83134 -74.75301 31834 ft 380 kts 242°
2026-05-05 22:38 40.80344 -74.81140 31836 ft 380 kts 242°
2026-05-05 22:39 40.77623 -74.87112 31835 ft 379 kts 244°
2026-05-05 22:39 40.74916 -74.93103 31835 ft 380 kts 244°
2026-05-05 22:40 40.72216 -74.99060 31832 ft 380 kts 244°
2026-05-05 22:40 40.69502 -75.05047 31837 ft 380 kts 243°
2026-05-05 22:41 40.66778 -75.11035 31828 ft 381 kts 244°
2026-05-05 22:41 40.64053 -75.17025 31835 ft 381 kts 243°
2026-05-05 22:42 40.61324 -75.23003 31838 ft 381 kts 243°
2026-05-05 22:42 40.59013 -75.28059 31839 ft 381 kts 243°
2026-05-05 22:43 40.56283 -75.34021 31837 ft 381 kts 243°
2026-05-05 22:43 40.53546 -75.39986 31855 ft 381 kts 243°
2026-05-05 22:44 40.50824 -75.45907 31852 ft 381 kts 243°
2026-05-05 22:44 40.48064 -75.51901 31858 ft 381 kts 243°
2026-05-05 22:45 40.45357 -75.57827 31853 ft 379 kts 246°
2026-05-05 22:45 40.44358 -75.61007 31851 ft 374 kts 257°
2026-05-05 22:45 40.43805 -75.64323 31849 ft 371 kts 263°
2026-05-05 22:46 40.42777 -75.70973 31838 ft 373 kts 258°
2026-05-05 22:46 40.41404 -75.77542 31841 ft 373 kts 259°
2026-05-05 22:47 40.40212 -75.84161 31835 ft 372 kts 259°
2026-05-05 22:47 40.38923 -75.90749 31838 ft 373 kts 259°
2026-05-05 22:48 40.37675 -75.97342 31837 ft 373 kts 259°
2026-05-05 22:48 40.36399 -76.03952 31840 ft 373 kts 259°
2026-05-05 22:49 40.35126 -76.10560 31838 ft 374 kts 259°
2026-05-05 22:49 40.33848 -76.17172 31837 ft 374 kts 259°
2026-05-05 22:50 40.32561 -76.23791 31843 ft 374 kts 259°
2026-05-05 22:50 40.31274 -76.30409 31840 ft 375 kts 259°
2026-05-05 22:51 40.29986 -76.36999 31837 ft 375 kts 258°
2026-05-05 22:51 40.28689 -76.43618 31823 ft 375 kts 258°
2026-05-05 22:52 40.27386 -76.50236 31821 ft 375 kts 258°
2026-05-05 22:52 40.26082 -76.56854 31834 ft 375 kts 258°
2026-05-05 22:53 40.24770 -76.63476 31835 ft 376 kts 258°
2026-05-05 22:53 40.23454 -76.70103 31841 ft 376 kts 258°
2026-05-05 22:54 40.22134 -76.76726 31840 ft 376 kts 258°
2026-05-05 22:54 40.20808 -76.83360 31828 ft 376 kts 258°
2026-05-05 22:55 40.19479 -76.89991 31829 ft 376 kts 258°
2026-05-05 22:55 40.18145 -76.96613 31826 ft 376 kts 258°
2026-05-05 22:56 40.16810 -77.03235 31827 ft 376 kts 258°
2026-05-05 22:56 40.15468 -77.09857 31827 ft 376 kts 258°
2026-05-05 22:57 40.14125 -77.16472 31830 ft 377 kts 257°
2026-05-05 22:57 40.12774 -77.23099 31830 ft 377 kts 257°
2026-05-05 22:58 40.11420 -77.29724 31829 ft 377 kts 257°
2026-05-05 22:58 40.10069 -77.36306 31832 ft 378 kts 257°
2026-05-05 22:59 40.08705 -77.42939 31828 ft 378 kts 257°
2026-05-05 22:59 40.07335 -77.49574 31842 ft 379 kts 257°
2026-05-05 23:00 40.05270 -77.59542 31827 ft 380 kts 257°
2026-05-05 23:00 40.03884 -77.66203 31822 ft 380 kts 257°
2026-05-05 23:01 40.02491 -77.72876 31828 ft 380 kts 257°
2026-05-05 23:01 40.01096 -77.79538 31833 ft 381 kts 257°
2026-05-05 23:02 39.99704 -77.86170 31838 ft 382 kts 257°
2026-05-05 23:02 39.98296 -77.92852 31836 ft 382 kts 257°
2026-05-05 23:03 39.96882 -77.99537 31848 ft 382 kts 257°
2026-05-05 23:03 39.95467 -78.06216 31844 ft 382 kts 257°
2026-05-05 23:04 39.94046 -78.12901 31842 ft 382 kts 257°
2026-05-05 23:04 39.92621 -78.19577 31846 ft 382 kts 256°
2026-05-05 23:05 39.91185 -78.26289 31841 ft 382 kts 256°
2026-05-05 23:05 39.90467 -78.29637 31464 ft 384 kts 256°
2026-05-05 23:05 39.89746 -78.32961 31018 ft 379 kts 256°
2026-05-05 23:06 39.89028 -78.36258 30559 ft 377 kts 256°
2026-05-05 23:06 39.88324 -78.39539 30080 ft 376 kts 256°
2026-05-05 23:06 39.87622 -78.42816 29564 ft 374 kts 256°
2026-05-05 23:06 39.86920 -78.46059 29095 ft 371 kts 256°
2026-05-05 23:07 39.86212 -78.49317 28631 ft 367 kts 256°
2026-05-05 23:07 39.85524 -78.52502 28161 ft 364 kts 256°
2026-05-05 23:07 39.84840 -78.55665 27725 ft 361 kts 256°
2026-05-05 23:07 39.84164 -78.58767 27585 ft 349 kts 256°
2026-05-05 23:08 39.83511 -78.61745 27589 ft 335 kts 256°
2026-05-05 23:08 39.82890 -78.64590 27375 ft 329 kts 256°
2026-05-05 23:08 39.82267 -78.67463 26963 ft 329 kts 256°
2026-05-05 23:08 39.81641 -78.70338 26536 ft 329 kts 256°
2026-05-05 23:09 39.81010 -78.73212 26096 ft 330 kts 256°
2026-05-05 23:09 39.80381 -78.76079 25659 ft 329 kts 255°
2026-05-05 23:09 39.79757 -78.78944 25230 ft 330 kts 256°
2026-05-05 23:09 39.79129 -78.81819 24788 ft 330 kts 256°
2026-05-05 23:10 39.78506 -78.84647 24365 ft 330 kts 255°
2026-05-05 23:10 39.77869 -78.87521 23924 ft 330 kts 255°
2026-05-05 23:10 39.77229 -78.90418 23484 ft 330 kts 255°
2026-05-05 23:10 39.76608 -78.93238 23016 ft 328 kts 255°
2026-05-05 23:11 39.75980 -78.96080 22588 ft 325 kts 255°
2026-05-05 23:11 39.75356 -78.98894 22168 ft 322 kts 255°
2026-05-05 23:11 39.74738 -79.01682 21751 ft 320 kts 255°
2026-05-05 23:11 39.74123 -79.04452 21339 ft 317 kts 255°
2026-05-05 23:12 39.73515 -79.07195 20926 ft 315 kts 255°
2026-05-05 23:12 39.72910 -79.09915 20516 ft 312 kts 255°
2026-05-05 23:12 39.72305 -79.12624 20114 ft 310 kts 255°
2026-05-05 23:12 39.71706 -79.15306 19710 ft 308 kts 255°
2026-05-05 23:13 39.71105 -79.17999 19302 ft 306 kts 255°
2026-05-05 23:13 39.70712 -79.19757 19041 ft 305 kts 255°
2026-05-05 23:13 39.70124 -79.22393 18648 ft 303 kts 254°
2026-05-05 23:13 39.69537 -79.25009 18258 ft 301 kts 254°
2026-05-05 23:14 39.68951 -79.27618 17830 ft 299 kts 255°
2026-05-05 23:14 39.68372 -79.30195 17470 ft 295 kts 254°
2026-05-05 23:14 39.67804 -79.32723 17168 ft 289 kts 255°
2026-05-05 23:14 39.67268 -79.35104 16816 ft 287 kts 255°
2026-05-05 23:15 39.66710 -79.37580 16443 ft 284 kts 255°
2026-05-05 23:15 39.66157 -79.40031 16066 ft 282 kts 255°
2026-05-05 23:15 39.65609 -79.42463 15695 ft 279 kts 255°
2026-05-05 23:15 39.65065 -79.44875 15333 ft 277 kts 255°
2026-05-05 23:16 39.64524 -79.47259 14970 ft 274 kts 255°
2026-05-05 23:16 39.63987 -79.49624 14610 ft 273 kts 255°
2026-05-05 23:16 39.63453 -79.51980 14250 ft 271 kts 255°
2026-05-05 23:16 39.62922 -79.54320 13896 ft 269 kts 256°
2026-05-05 23:17 39.62402 -79.56613 13529 ft 268 kts 256°
2026-05-05 23:17 39.61885 -79.58887 13167 ft 265 kts 255°
2026-05-05 23:17 39.61353 -79.61224 12820 ft 262 kts 255°
2026-05-05 23:17 39.60839 -79.63479 12484 ft 260 kts 255°
2026-05-05 23:18 39.60329 -79.65713 12139 ft 257 kts 255°
2026-05-05 23:18 39.59823 -79.67931 11805 ft 255 kts 255°
2026-05-05 23:18 39.59320 -79.70129 11475 ft 254 kts 255°
2026-05-05 23:18 39.58817 -79.72326 11138 ft 253 kts 255°
2026-05-05 23:19 39.58317 -79.74512 10812 ft 252 kts 255°
2026-05-05 23:19 39.57826 -79.76653 10487 ft 250 kts 255°
2026-05-05 23:19 39.57333 -79.78827 10154 ft 246 kts 256°
2026-05-05 23:19 39.57107 -79.80974 9840 ft 242 kts 270°
2026-05-05 23:20 39.57395 -79.83120 9506 ft 243 kts 285°
2026-05-05 23:20 39.58160 -79.85067 9181 ft 244 kts 299°
2026-05-05 23:20 39.59351 -79.86649 8852 ft 248 kts 316°
2026-05-05 23:20 39.60878 -79.87712 8551 ft 256 kts 332°
2026-05-05 23:21 39.62639 -79.88299 8210 ft 265 kts 340°
2026-05-05 23:21 39.64438 -79.88840 7862 ft 265 kts 339°
2026-05-05 23:21 39.66225 -79.89410 7513 ft 264 kts 339°
2026-05-05 23:21 39.67987 -79.89988 7170 ft 258 kts 340°
2026-05-05 23:22 39.69722 -79.90539 6831 ft 255 kts 340°
2026-05-05 23:22 39.71449 -79.91094 6495 ft 256 kts 340°
2026-05-05 23:22 39.73162 -79.91644 6152 ft 257 kts 340°
2026-05-05 23:22 39.74900 -79.92206 5804 ft 254 kts 340°
2026-05-05 23:23 39.76561 -79.92735 5478 ft 239 kts 340°
2026-05-05 23:23 39.78135 -79.93238 5166 ft 227 kts 339°
2026-05-05 23:23 39.79638 -79.93725 4873 ft 219 kts 339°
2026-05-05 23:23 39.81094 -79.94197 4584 ft 212 kts 339°
2026-05-05 23:24 39.82498 -79.94649 4304 ft 204 kts 339°
2026-05-05 23:24 39.83861 -79.95089 4039 ft 199 kts 340°
2026-05-05 23:24 39.85067 -79.95716 3989 ft 175 kts 315°
2026-05-05 23:24 39.85815 -79.96808 3979 ft 152 kts 296°
2026-05-05 23:25 39.86403 -79.97846 3982 ft 133 kts 296°
2026-05-05 23:25 39.86979 -79.98877 3981 ft 159 kts 296°
2026-05-05 23:25 39.87695 -80.00155 3998 ft 194 kts 299°
2026-05-05 23:25 39.88566 -80.01653 3997 ft 219 kts 301°
2026-05-05 23:26 39.89821 -80.02951 3996 ft 249 kts 332°
2026-05-05 23:26 39.91602 -80.03122 3985 ft 269 kts
2026-05-05 23:26 39.93221 -80.01946 3982 ft 271 kts 45°
2026-05-05 23:26 39.94080 -79.99814 3972 ft 266 kts 81°
2026-05-05 23:27 39.93887 -79.97491 3979 ft 255 kts 118°
2026-05-05 23:27 39.92767 -79.95831 3974 ft 240 kts 155°
2026-05-05 23:27 39.91221 -79.95200 3982 ft 231 kts 174°
2026-05-05 23:27 39.89644 -79.94847 3988 ft 229 kts 176°
2026-05-05 23:28 39.88065 -79.94593 3986 ft 226 kts 182°
2026-05-05 23:28 39.86562 -79.94885 3986 ft 211 kts 197°
2026-05-05 23:28 39.85092 -79.95184 3978 ft 216 kts 189°
2026-05-05 23:28 39.83590 -79.95106 3982 ft 214 kts 178°
2026-05-05 23:29 39.82159 -79.94851 3983 ft 207 kts 178°
2026-05-05 23:29 39.80752 -79.94600 3982 ft 201 kts 178°
2026-05-05 23:29 39.79462 -79.94369 3986 ft 173 kts 178°
2026-05-05 23:29 39.78314 -79.94163 3842 ft 160 kts 179°
2026-05-05 23:30 39.77282 -79.93979 3654 ft 146 kts 178°
2026-05-05 23:30 39.76227 -79.93802 3443 ft 156 kts 179°
2026-05-05 23:30 39.75143 -79.93616 3256 ft 159 kts 179°
2026-05-05 23:30 39.74044 -79.93431 3042 ft 161 kts 178°
2026-05-05 23:31 39.72937 -79.93244 2837 ft 160 kts 178°
2026-05-05 23:31 39.71825 -79.93056 2625 ft 162 kts 178°
2026-05-05 23:31 39.70700 -79.92863 2405 ft 155 kts 176°
2026-05-05 23:31 39.69718 -79.92679 2208 ft 135 kts 177°
2026-05-05 23:32 39.68867 -79.92529 2033 ft 113 kts 178°
2026-05-05 23:32 39.68023 -79.92390 1852 ft 122 kts 174°
2026-05-05 23:32 39.67165 -79.92234 1725 ft 123 kts 175°
2026-05-05 23:32 39.66320 -79.92089 1564 ft 122 kts 175°
2026-05-05 23:33 39.65486 -79.91947 1361 ft 120 kts 176°
2026-05-05 23:33 39.64704 -79.91815 1238 ft 102 kts 172°
2026-05-05 23:33 39.64294 -79.91747 1255 ft 38 kts 173°
2026-05-05 23:33 39.64171 -79.91768 1245 ft 12 kts 267°
2026-05-05 23:34 39.64178 -79.91839 1245 ft 0 kts 278°
2026-05-05 23:34 39.64182 -79.91863 1258 ft 6 kts 279°
2026-05-05 23:34 39.64193 -79.91944 1242 ft 10 kts 280°
2026-05-05 23:34 39.64211 -79.92062 1234 ft 11 kts 281°
2026-05-05 23:35 39.64224 -79.92160 1227 ft 9 kts 280°
2026-05-05 23:35 39.64243 -79.92204 1232 ft 3 kts 304°
2026-05-05 23:35 39.64250 -79.92239 1233 ft 7 kts 267°
2026-05-05 23:35 39.64240 -79.92256 1232 ft 0 kts 211°
2026-05-05 23:36 39.64248 -79.92216 1233 ft 0 kts 211°
2026-05-05 23:36 39.64245 -79.92242 1232 ft 0 kts 240°
2026-05-05 23:36 39.64226 -79.92240 1230 ft 3 kts 109°
2026-05-05 23:36 39.64225 -79.92234 1230 ft 0 kts 104°